Weather in Radviliškis

Lithuania     55°48′44″N   23°32′49″E
temp.,
°C
wind,
m/s
gust,
m/s
humid.,
%
clouds,
%
prec.,
mm/h
press.,
hPa
HPBL,
m
27 february, sat
sat2723:00+2w5119227 0.0 1016310
02:00+2wnw6139042 0.0 1017420
05:00+1nw7158918 0.0 1017545
08:000nw714899 0.0 1020516
11:00+3nnw813790 0.0 1023821
14:00+5nnw812660 0.0 10251133
17:00+4nnw612690 0.0 1025782
20:00+1nw511810 0.0 1027321
28 february, sun
sun2823:000nw499227 0.0 1028281
02:00+1wnw5108663 0.0 1028338
05:00+2wnw5128199 0.0 1027372
08:00+3w7147799 0.0 1025407
11:00+6nw8136999 0.0 1024886
14:00+4nw7139099 0.4 1025713
17:00+4nw5118676 0.2 1025469
20:00+2nw4109238 0.2 1027265
1 march, mon
mon123:00+1nw369532 0.0 1028116
02:00+1nw389516 0.0 1030181
05:00+1nw48950 0.0 1029202
08:00+1wnw49920 0.0 1030174
11:00+7wnw59720 0.0 1030419
14:00+9w59640 0.0 1028554
17:00+7wsw7136839 0.0 1026555
20:00+3w6138739 0.0 1027458
2 march, tue
tue223:00+2wnw511920 0.0 1027356
02:00+1wnw37930 0.0 1028149
05:00+1wnw46888 0.0 1028114
08:00+1w488427 0.0 1028156
11:00+6w46680 0.0 1028275
14:00+9w58590 0.0 1028504
17:00+8wnw48700 0.0 1027365
20:00+4wnw48890 0.0 1028194
3 march, wed
wed323:00+2nw36910 0.0 1028123
02:00+1nw34910 0.0 102973
05:000wnw34911 0.0 102862
08:00+1wnw34915 0.0 102893
11:00+5w23740 0.0 1028263
14:00+7sw33680 0.0 1026510
17:00+5sw46800 0.0 1024400
20:00+1wsw47919 0.0 1023384